Tracking 29089 objects as of 12-Jul-2024
HD Live streaming from Space Station
objects crossing your sky now

STARLINK-4774

Track STARLINK-4774 now!
10-day predictions
STARLINK-4774 is classified as:


NORAD ID: 56138
Int'l Code: 2023-046AY
Perigee: 565.3 km
Apogee: 567.2 km
Inclination: 43.0 °
Period: 95.8 minutes
Semi major axis: 6937 km
RCS: Unknown
Launch date: March 29, 2023
Source: United States (US)
Launch site: AIR FORCE EASTERN TEST RANGE (AFETR)
Your satellite tracking list
Your tracking list is empty




NASA's NSSDC Master Catalog

Two Line Element Set (TLE):
1 56138U 23046AY  24194.28213759  .00000447  00000-0  48157-4 0  9999
2 56138  43.0030 195.5277 0001361 266.3675  93.7011 15.02536369 71141
Source of the keplerian elements: AFSPC